Activity Log for Jul, 27 2019

Back to Activity Log Search


Incident Time Nature Address
19F089922 00:04:04 30 TRAFFIC STOP E DEWALD ST & S LAFAYETTE ST
19F089925 00:04:17 40A AUDIBLE 31XX OLIVER ST
19F089923 00:04:30 44LM 13XX BLK UNION ST
19F089924 00:08:16 30 TRAFFIC STOP N COLISEUM BLVD & NEVADA AVE
19F089926 00:14:36 44 NUISANCE 47XX WINTER ST
19F089927 00:21:44 48,36 13XX HOME AVE
19F089932 00:23:09 44LP 14XX N HARRISON ST
19F089928 00:27:29 911 HANG UP 4XX SPRING ST
19F089929 00:31:42 40A AUDIBLE 34XX MEYER RD
19F089930 00:35:30 103 UNWANTED 3XX E SUPERIOR ST
19F089931 00:39:40 48 SUSPICIOUS 70XX LAMONT DR
19F089934 00:41:50 48,36 24XX W JEFFERSON BLVD
19F089933 00:42:50 30 TRAFFIC STOP LAKE AVE & N COLISEUM BLVD
19F089937 00:50:28 27 RECKLESS DRI 25XX I 469 SB
19F089935 00:50:54 EMS 27XX LYKEWAY CT
19F089939 01:02:17 66 MENTALLY ILL 12XX ONEIDA ST
19F089936 01:02:29 44LM E PETTIT AVE & SOUTHPARK DR
19F089938 01:05:22 129 3XX E SUPERIOR ST
19F089940 01:11:03 40A AUDIBLE 45XX INDUSTRIAL RD
19F089941 01:13:31 30 TRAFFIC STOP 29XX I 469 NB
19F089942 01:14:14 63 CONTACT 28XX CARRINGTON DR
19F089943 01:15:56 103 UNWANTED 3XX E SUPERIOR ST
19F089944 01:23:41 103 UNWANTED 3XX E SUPERIOR ST
19F089945 01:25:26 48 SUSPICIOUS 29XX GOSHEN RD
19F089947 01:27:21 911 HANG UP 24XX E STATE BLVD
19F089946 01:27:53 48,36 14XX LAKE AVE
19F089948 01:34:44 103 UNWANTED 40XX HESSEN CASSEL RD
19F089949 01:36:45 66V MENTAL VIOL 33XX W COLISEUM BLVD
19F089950 01:41:21 55 FIGHT 12XX W MAIN ST
19F089956 01:45:55 102,TX THREATS 11XX TECUMSEH ST
19F089953 01:46:36 40A AUDIBLE 28XX NORTHHIGHLANDS BLVD
19F089951 01:48:36 48,36 29XX GOSHEN RD
19F089952 01:48:58 30 TRAFFIC STOP MCCORMICK AVE & SHADY BROOK DR
19F089954 01:49:25 63 CONTACT 32XX CLINTON CT
19F089955 02:00:24 20 PROBLEM UNK MCARTHUR DR & ELZEY ST
19F089957 02:03:11 22I JUV INVEST 66XX ARNEL AVE
19F089958 02:03:42 46,62 26XX FOX AVE
19F089959 02:04:45 25 PD ACCIDENT 15XX W DUPONT RD
19F089960 02:11:52 96JO FIFTH ST & CASS ST
19F089961 02:19:22 EMS 41XX MAPLECREST RD
19F089962 02:27:24 30 TRAFFIC STOP SPY RUN AVE & E FOURTH ST
19F089963 02:28:49 43 DISTURBANCE 67XX RAMBLEWOOD DR
19F089978 02:36:17 44LM 53XX WHITEWATER PASS
19F089977 02:36:20 63 CONTACT 47XX S CALHOUN ST
19F089964 02:40:22 108 FOLLOWUP 3XX W COX DR
19F089965 02:42:29 48 SUSPICIOUS 48XX MOELLER RD
19F089967 02:44:02 96JO 54XX ARCHWOOD LN
19F089966 02:44:52 102 THREATS 79XX W JEFFERSON BLVD
19F089968 02:46:15 44LM 13XX UNION ST
19F089969 02:49:51 43 DISTURBANCE 19XX HOAGLAND AVE
19F089970 02:50:18 43 DISTURBANCE 15XX PRODUCTION RD
19F089971 02:51:06 111D DOG 11XX GLASGOW AVE
19F089973 02:52:40 46 DOMESTIC 22XX FAIRFIELD AVE
19F089972 02:56:09 96JO 3XX W BUTLER ST
19F089974 03:07:57 48,36 HUBBARD RUN & NORTHHAMPTON PL
19F089975 03:15:56 43 DISTURBANCE 40XX COLDWATER RD
19F089976 03:24:21 30 TRAFFIC STOP COLDWATER RD & E COLLINS RD
19F089979 03:29:34 26 PI ACCIDENT 312XX I 69 SB
19F089980 03:33:33 46 DOMESTIC 75XX IDEAL AVE
19F089981 03:38:41 41,36 E COLISEUM BLVD & COLDWATER RD
19F089982 03:50:10 46 DOMESTIC 25XX S CALHOUN ST
19F089983 03:59:14 103 UNWANTED 12XX EMILY ST
19F089984 04:05:56 46 DOMESTIC 30XX NORDHOLME AVE
19F089985 04:10:30 40A AUDIBLE 20XX BROADWAY
19F089986 04:17:35 44LP 20XX S LAFAYETTE ST
19F089987 04:19:36 46 DOMESTIC 20XX RIEDMILLER AVE
19F089989 04:26:41 911 HANG UP 109XX STELLHORN RD
19F089988 04:29:40 911 HANG UP 54XX SMITH ST
19F089990 04:36:43 40A AUDIBLE 52XX W WASHINGTON CENTER RD
19F089991 04:40:32 46 DOMESTIC 11XX HAMILTON AVE
19F089992 04:55:40 63 CONTACT 3XX W BUTLER ST
19F089993 05:06:01 40A AUDIBLE 39XX HESSEN CASSEL RD
19F089994 05:26:13 103 UNWANTED 10XX W COLISEUM BLVD
19F089995 05:36:22 40 ALARM 100XX DAWSONS CREEK BLVD
19F089996 05:50:50 1 MEET RICHARDSVILLE AVE & WARSAW ST
19F089997 06:07:50 40A AUDIBLE 51XX GAYWOOD DR
19F089998 06:30:07 40A AUDIBLE 31XX BOWSTRING PASS
19F089999 06:35:42 41 MAN DOWN S LAFAYETTE ST & E WILLIAMS ST
19F090000 06:44:05 46 DOMESTIC 26XX HOLTON AVE
19F090001 07:02:14 40A AUDIBLE 9XX LIBRARY PLAZA
19F090002 07:30:50 40A AUDIBLE 34XX CONGRESSIONAL PKWY
19F090003 07:40:20 103 UNWANTED 33XX W COLISEUM BLVD
19F090004 07:41:20 911 HANG UP 52XX IONE DR
19F090005 07:50:08 46 DOMESTIC 16XX REED RD
19F090006 07:53:08 40A AUDIBLE 52XX INDUSTRIAL RD
19F090008 08:09:48 43 DISTURBANCE 71XX BEATY AVE
19F090007 08:10:40 40A AUDIBLE 7XX W WASHINGTON CENTER RD
19F090009 08:13:06 129 56XX NORTH BROOKWOOD DR
19F090010 08:15:49 103 UNWANTED 68XX RAMBLEWOOD DR
19F090011 08:17:17 37 PARKING VIOL 44XX HOAGLAND AVE
19F090012 08:26:21 37 PARKING VIOL 4XX MAXINE DR
19F090013 08:36:13 46,96 25XX NORTHWAY AVE
19F090015 08:37:39 911 HANG UP 28XX FOXCHASE RUN
19F090014 08:38:47 37 PARKING VIOL 41XX BUELL DR
19F090016 08:45:19 26 PI ACCIDENT 18XX HOBSON RD
19F090017 08:45:49 17 MOTOR CHECK 40XX ARLINGTON AVE
19F090018 08:48:22 41 MAN DOWN 50XX BLUFFTON RD
19F090019 08:48:24 22I JUV INVEST 24XX RIVER COVE TRL
19F090020 08:52:12 33,34 LIMA RD & W LUDWIG RD
19F090021 08:56:07 101 OPEN DOOR 52XX W WASHINGTON CENTER RD
19F090022 09:00:38 66 MENTALLY ILL 5XX W BERRY ST
19F090023 09:08:29 43 DISTURBANCE 75XX ST JOE RD
19F090024 09:11:53 34 TRAFF HAZARD 305XX I 69 SB
19F090025 09:14:54 37 PARKING VIOL 39XX ARLINGTON AVE
19F090059 09:21:30 63 CONTACT 14XX E RUDISILL BLVD
19F090026 09:32:51 66V MENTAL VIOL 52XX IONE DR
19F090043 09:44:41 48 SUSPICIOUS 46XX EUCLID AVE
19F090027 09:45:39 51 THEFT 10XX E COLISEUM BLVD
19F090028 09:47:51 103 UNWANTED 27XX MANFORD ST
19F090029 09:48:40 46 DOMESTIC 52XX BUELL DR
19F090030 09:57:15 911 HANG UP 65XX DURANGO DR
19F090047 10:00:45 17 MOTOR CHECK 38XX WYANDOTTE DR
19F090032 10:04:03 40A AUDIBLE 1XX E BERRY ST
19F090039 10:05:40 37 PARKING VIOL 5XX W ESSEX LN
19F090034 10:06:32 66 MENTALLY ILL 9XX W COLISEUM BLVD
19F090031 10:07:18 25 PD ACCIDENT N CLINTON ST & AUBURN RD
19F090033 10:07:36 47 REMOVE ITEMS 62XX BRIDLEWOOD DR
19F090035 10:07:51 17 MOTOR CHECK 10XX LOUISEDALE DR
19F090036 10:14:19 72 FAIL TO PAY 41XX BOWSER AVE
19F090060 10:15:45 39R STOLEN RECO 7XX W COLISEUM BLVD
19F090037 10:18:08 50,ATTEMPTED 73XX MAEVE DR
19F090038 10:18:28 15 ASSIST 32XX FELICIAN ST
19F090113 10:20:47 37 PARKING VIOL 36XX LOGAN AVE
19F090040 10:25:24 46 DOMESTIC 11XX HAMILTON AVE
19F090042 10:34:22 16,97 39XX HOAGLAND AVE
19F090041 10:34:37 46 DOMESTIC 10XX AYLESFORD DR
19F090048 10:35:03 25HS HIT SKIP 15XX E RUDISILL BLVD
19F090044 10:37:15 1 MEET 22XX DUNKELBERG RD
19F090050 10:41:07 48,35 32XX WELLS ST
19F090049 10:41:31 46 DOMESTIC 14XX GABLE RD
19F090046 10:43:49 47 REMOVE ITEMS 62XX BRIDLEWOOD DR
19F090045 10:45:44 25HS HIT SKIP 43XX S ANTHONY BLVD
19F090061 10:52:12 44LM 27XX OLIVER ST
19F090051 10:56:03 47 REMOVE ITEMS 27XX W WASHINGTON CENTER RD
19F090052 10:58:12 47 REMOVE ITEMS 40XX WARSAW ST
19F090053 11:00:05 1 MEET XX E MAIN ST
19F090054 11:04:20 40A AUDIBLE 23XX BLUE HARBOR DR
19F090056 11:07:50 ATL 41XX AVONDALE DR
19F090055 11:08:17 33J LOCKED OUT 16XX W WASHINGTON CENTER RD
19F090057 11:10:34 48,36 15XX OXFORD ST
19F090058 11:12:32 40A AUDIBLE 55XX GATE TREE LN
19F090062 11:30:32 40 ALARM 11XX HAYDEN ST
19F090063 11:34:18 39U UNAUTHORIZE 10XX LAKE AVE
19F090064 11:36:16 48,36 58XX MASON DR
19F090065 11:36:18 25 PD ACCIDENT LIMA RD & W COLISEUM BLVD
19F090067 11:37:58 46 DOMESTIC 21XX BAY SIDE CT
19F090071 11:38:05 15 ASSIST 19XX GREY BIRCH RD
19F090066 11:38:29 38 LOST/STOLEN 29XX CANTERBURY BLVD
19F090068 11:41:07 40A AUDIBLE 52XX MCCLELLAN ST
19F090070 11:46:28 EMS 69XX AUTUMN VIEW DR
19F090069 11:47:29 26 PI ACCIDENT BLUFFTON RD & ENGLE RD
19F090072 11:52:45 33J LOCKED OUT 59XX ILLINOIS RD
19F090073 11:54:24 96JO 79XX DECATUR RD
19F090078 12:08:13 51,35 XX E MAIN ST
19F090074 12:08:31 34 TRAFF HAZARD S LAFAYETTE ST & SOUTHTOWN BLVD
19F090075 12:12:45 46 DOMESTIC 13XX GREENE ST
19F090077 12:17:14 33 DISABLED VEH GOSHEN RD & W COLISEUM BLVD
19F090076 12:19:25 66V MENTAL VIOL 103XX GLEN ARBOR PASS
19F090079 12:25:10 44 NUISANCE SHERMAN BLVD & W FOURTH ST
19F090081 12:31:20 EMS 13XX W MAIN ST
19F090080 12:31:30 40 ALARM 21XX OLLADALE DR
19F090083 12:33:18 37 PARKING VIOL 33XX LONA DR
19F090084 12:34:51 50 BURGLARY 2XX PURSLEY DR
19F090082 12:35:27 129 21XX DALE DR
19F090085 12:39:55 40A AUDIBLE 13XX RABUS DR
19F090086 12:46:04 43 DISTURBANCE 28XX REED ST
19F090087 12:46:56 51,35 96XX WOLF RIVER PL
19F090088 12:47:27 1 MEET 103XX MONTICELLO BLVD
19F090090 12:48:23 17 MOTOR CHECK 22XX CONTRACTORS DR
19F090089 12:50:02 43 DISTURBANCE 26XX PRISCILLA LN
19F090091 12:56:46 33J LOCKED OUT E BERRY ST & S BARR ST
19F090092 13:01:21 46 DOMESTIC 35XX E STATE BLVD
19F090094 13:15:54 66V MENTAL VIOL 56XX WESTHILLS RD
19F090093 13:16:25 30 TRAFFIC STOP MAXINE DR & BEAVER AVE
19F090096 13:23:40 11C CAGE CAR 53XX COLDWATER RD
19F090095 13:23:43 30 TRAFFIC STOP 24XX N COLISEUM BLVD
19F090097 13:27:22 30 TRAFFIC STOP WINTER ST & VENTURA LN
19F090099 13:27:46 43 DISTURBANCE OXFORD ST & S ANTHONY BLVD
19F090098 13:27:49 41 MAN DOWN CRESCENT AVE & N ANTHONY BLVD
19F090100 13:28:04 EMS E STATE BLVD & CRESCENT AVE
19F090109 13:29:12 102 THREATS 30XX CANTERBURY BLVD
19F090103 13:30:25 46,96 79XX DECATUR RD
19F090101 13:32:52 63 CONTACT 19XX VANCE AVE
19F090102 13:36:49 103 UNWANTED 11XX HUFFMAN ST
19F090104 13:44:10 40A AUDIBLE 52XX YORKSHIRE DR
19F090105 13:53:34 46 DOMESTIC 4XX E WASHINGTON CENTER RD
19F090106 13:54:56 25HS HIT SKIP S LAFAYETTE ST & MCKINNIE AVE
19F090108 13:59:27 46 DOMESTIC 45XX MANISTEE DR
19F090107 13:59:28 129 9XX MADISON ST
19F090110 14:00:42 46,96 10XX HOME AVE
19F090111 14:01:12 51 THEFT 48XX S ANTHONY BLVD
19F090112 14:02:31 25 PD ACCIDENT TRIER RD & MAPLECREST RD
19F090114 14:11:43 33,34 LAKE AVE & MAPLECREST RD
19F090116 14:13:56 43 DISTURBANCE 27XX OLIVER ST
19F090115 14:14:29 25 PD ACCIDENT 22XX LOWER HUNTINGTON RD
19F090118 14:14:45 63 CONTACT CRESCENT AVE & E STATE BLVD
19F090117 14:15:18 48 SUSPICIOUS 100XX DAWSONS CREEK BLVD
19F090119 14:18:28 40A AUDIBLE 52XX RIVIERA DR
19F090120 14:20:12 46,96 71XX WINNEBAGO DR
19F090121 14:22:24 25 PD ACCIDENT MANISTEE DR & STELLHORN RD
19F090124 14:24:58 24 MISSING PERS 66XX JOHN ST
19F090123 14:26:36 103 UNWANTED 52XX BUELL DR
19F090122 14:26:43 38 LOST/STOLEN 6XX E DUPONT RD
19F090125 14:37:34 51,35 4XX E WAYNE ST
19F090128 14:37:37 25 PD ACCIDENT CRESCENT AVE & E STATE BLVD
19F090126 14:39:04 30 TRAFFIC STOP GOSHEN AVE & HARRIS RD
19F090127 14:39:06 20 PROBLEM UNK ILLINOIS RD & S HILLEGAS RD
19F090129 14:42:41 46 DOMESTIC 2XX E CONCORD LN
19F090131 14:43:54 103 UNWANTED 9XX LIBRARY PLAZA
19F090130 14:44:37 33J LOCKED OUT 19XX HOBSON RD
19F090132 14:44:38 22N CHILD NEGLE 104XX MAYSVILLE RD
19F090133 14:49:18 11C CAGE CAR 17XX APPLE GLEN BLVD
19F090135 14:49:46 96JO 16XX CASS ST
19F090134 14:50:31 30 TRAFFIC STOP W LUDWIG RD & CROSS CREEK BLVD
19F090136 14:53:40 30 TRAFFIC STOP BROADWAY & TAYLOR ST
19F090140 14:54:08 56 MOLESTING 15XX REED RD
19F090137 14:54:23 48,36 13XX HURON ST
19F090138 14:54:54 30 TRAFFIC STOP 7XX W WALLEN RD
19F090139 14:55:02 40A AUDIBLE 43XX TACOMA AVE
19F090142 14:55:09 51 THEFT 62XX STELLHORN RD
19F090144 15:04:37 43 DISTURBANCE 29XX OLIVER ST
19F090143 15:05:50 30 TRAFFIC STOP APPLE GLEN BLVD & W JEFFERSON BLVD
19F090146 15:06:21 39 STOLEN VEHIC 30XX CENTRAL DR
19F090145 15:09:33 34 TRAFF HAZARD E COOK RD & COLDWATER RD
19F090147 15:10:54 46 DOMESTIC 52XX N STONY RUN LN
19F090148 15:16:36 22RC RECOVERY 32XX S HANNA ST
19F090152 15:17:51 1 MEET 46XX S HANNA ST
19F090150 15:24:31 63 CONTACT HEATHERVIEW LN & LE STEELE BLVD
19F090151 15:24:57 40A AUDIBLE 14XX WELLS ST
19F090149 15:25:33 1 MEET HENDRICKS ST & MARTIN ST
19F090153 15:31:00 51 THEFT 10XX W WILDWOOD AVE
19F090154 15:32:07 48,36 18XX BROADWAY
19F090157 15:32:10 44FW 34XX SHERMAN BLVD
19F090155 15:32:42 EMS 35XX MCKINNIE AVE
19F090156 15:32:49 25 PD ACCIDENT 75XX SOUTHTOWN XING
19F090159 15:34:16 911 HANG UP 32XX PARNELL AVE
19F090172 15:34:24 108 FOLLOWUP 9XX HERMAN ST
19F090158 15:34:46 30 TRAFFIC STOP LOWER HUNTINGTON RD & BLUFFTON RD
19F090160 15:38:37 25 PD ACCIDENT LIMA RD & W DUPONT RD
19F090170 15:44:25 102,TX THREATS 23XX BOWSER AVE
19F090161 15:45:33 25 PD ACCIDENT LIMA RD & DUNN ST
19F090164 15:46:50 20 PROBLEM UNK E WASHINGTON BLVD & MEYER RD
19F090162 15:47:04 30 TRAFFIC STOP E COLISEUM BLVD & PAUL SHAFFER DR
19F090163 15:47:44 51 THEFT 27XX REED ST
19F090210 15:50:30 46,96 67XX BAY TREE DR
19F090165 15:51:30 46,96 25XX RIVER COVE TRL
19F090167 15:52:50 63 CONTACT 21XX PINNACLE CT
19F090166 15:53:06 40A AUDIBLE 10XX GOSHEN AVE
19F090169 15:57:03 25HS HIT SKIP NETTIE AVE & PARNELL AVE
19F090168 15:57:19 29 SPECIAL ASGN BLUFFTON RD & OLD TRAIL RD
19F090171 16:03:38 25 PD ACCIDENT 23XX INTERLAKEN DR
19F090174 16:04:09 46,96 ARLINGTON AVE & W FOSTER PKWY
19F090173 16:04:10 48 SUSPICIOUS E RUDISILL BLVD & S CLINTON ST
19F090176 16:04:12 40L LISTENING 5XX E WAYNE ST
19F090186 16:04:59 44 NUISANCE 9XX FULTON ST
19F090175 16:07:05 30 TRAFFIC STOP LAKE AVE & BAYVIEW DR
19F090178 16:10:05 48 SUSPICIOUS LIMA RD & NORTHBROOK BLVD
19F090180 16:10:35 51JO 42XX COLDWATER RD
19F090177 16:11:39 41 MAN DOWN MINER ST & W DEWALD ST
19F090179 16:12:31 40 ALARM 14XX MEYER RD
19F090181 16:12:50 108 FOLLOWUP 27XX MANFORD ST
19F090183 16:15:49 22I JUV INVEST 19XX HOBSON RD
19F090182 16:19:59 51 THEFT 62XX ST JOE RD
19F090184 16:22:25 25 PD ACCIDENT 41XX ILLINOIS RD
19F090187 16:23:01 43 DISTURBANCE 45XX STANDISH DR
19F090185 16:23:24 40P PANIC ALARM 72XX MAPLECREST RD
19F090188 16:24:56 40A AUDIBLE 28XX E DUPONT RD
19F090192 16:27:21 37 PARKING VIOL 47XX WELLINGTON DR
19F090189 16:27:26 40A AUDIBLE 1XX E PETTIT AVE
19F090195 16:30:56 40 ALARM 49XX LIMA RD
19F090190 16:31:12 46 DOMESTIC 43XX FAIRFIELD AVE
19F090191 16:31:29 103 UNWANTED 35XX W COLISEUM BLVD
19F090194 16:32:38 27 RECKLESS DRI S ANTHONY BLVD & E PAULDING RD
19F090193 16:33:01 41 MAN DOWN 31XX WELLS ST
19F090196 16:33:21 33,34 W WASHINGTON BLVD & S CALHOUN ST
19F090199 16:35:16 63 CONTACT 9XX BUCHANAN ST
19F090197 16:35:37 40A AUDIBLE 22XX LAKE AVE
19F090198 16:38:32 30 TRAFFIC STOP 309XX I 69 NB
19F090200 16:40:16 46,96 63XX E STATE BLVD
19F090206 16:43:25 23,35 VAND VEH E FOURTH ST & N CLINTON ST
19F090201 16:47:08 33,34 27XX E DUPONT RD
19F090202 16:47:44 30 TRAFFIC STOP 311XX I 69 NB
19F090203 16:48:07 30 TRAFFIC STOP FRANKLIN AVE & HIGH ST
19F090204 16:48:58 30 TRAFFIC STOP HALE AVE & BROOKLYN AVE
19F090205 16:51:54 96IP 30XX SIMCOE DR
19F090209 16:57:28 46 DOMESTIC 27XX S HARRISON ST
19F090208 16:58:50 33,34 LIMA RD & W DUPONT RD
19F090211 17:06:07 40A AUDIBLE 85XX CASTLE CREEK DR
19F090212 17:06:55 30 TRAFFIC STOP 2XX E FOURTH ST
19F090213 17:06:56 65A SUICIDE ATT 52XX LAWFORD LN
19F090214 17:12:21 30 TRAFFIC STOP 2XX E PETTIT AVE
19F090215 17:16:18 129 3XX LEXINGTON CT
19F090216 17:19:06 43 DISTURBANCE 41XX REED ST
19F090217 17:19:37 46 DOMESTIC 69XX RICHFIELD CT
19F090218 17:25:26 33J LOCKED OUT 65XX LIMA RD
19F090226 17:25:58 ATL 68XX POINTE INVERNESS WAY
19F090219 17:26:40 30 TRAFFIC STOP PHENIE ST & TAYLOR ST
19F090220 17:27:26 40A AUDIBLE 45XX SPATZ AVE
19F090221 17:31:32 30 TRAFFIC STOP S COLISEUM BLVD AND E WASHINGTON B
19F090222 17:33:44 30 TRAFFIC STOP 67XX E STATE BLVD
19F090223 17:33:49 15 ASSIST 301XX I 69 SB
19F090224 17:37:44 43 DISTURBANCE 23XX FAIRFIELD AVE
19F090225 17:40:48 43 DISTURBANCE 41XX REED ST
19F090229 17:41:23 40A AUDIBLE 94XX OLD GRIST MILL PL
19F090227 17:42:08 30 TRAFFIC STOP I 69 AND US 30
19F090228 17:42:44 33 DISABLED VEH S COLISEUM BLVD AND E WASHINGTON B
19F090230 17:45:01 40P PANIC ALARM 16XX SPY RUN AVE
19F090231 17:45:10 43 DISTURBANCE 27XX ABBOTT ST
19F090232 17:46:00 48 SUSPICIOUS 39XX W JEFFERSON BLVD
19F090233 17:48:49 101 OPEN DOOR 28XX NORTHWAY DR
19F090234 17:51:15 42 INTOX PERSON 9XX FULTON ST
19F090235 17:51:17 44LM 50XX ROTHMAN RD
19F090238 17:55:49 25 PD ACCIDENT TAYLOR ST & FAIRFIELD AVE
19F090237 17:57:53 43 DISTURBANCE 9XX LIBRARY PLAZA
19F090236 17:58:20 46 DOMESTIC 13XX TAYLOR ST
19F090239 17:59:58 33,34 E DUPONT RD & AUBURN RD
19F090241 18:06:46 63 CONTACT W JEFFERSON BLVD & FAIRFIELD AVE
19F090240 18:07:45 30 TRAFFIC STOP 22XX MAPLECREST RD
19F090242 18:13:52 27 RECKLESS DRI 13XX HOME AVE
19F090243 18:14:52 48,36 57XX COVENTRY LN
19F090244 18:15:19 30 TRAFFIC STOP WELLS ST & JACOBS AVE
19F090249 18:15:32 101 OPEN DOOR 12XX KENWOOD AVE
19F090245 18:16:45 63 CONTACT 31XX I 469 NB
19F090246 18:17:44 63 CONTACT 122XX HARBOUR POINTE
19F090247 18:19:59 43 DISTURBANCE 25XX SOUTHWAYNE AVE
19F090248 18:20:53 40H HOLDUP ALRM 13XX MAPLE AVE
19F090250 18:23:17 48,36 4XX FIDDLERS CV
19F090252 18:25:55 23 VANDALISM 9XX E STATE BLVD
19F090251 18:31:05 51 THEFT 12XX W PACKARD AVE
19F090253 18:31:19 46,96 7XX W COLISEUM BLVD
19F090256 18:32:26 103 UNWANTED 30XX GOSHEN RD
19F090254 18:32:50 96JO 24XX OLIVER ST
19F090255 18:34:07 40A AUDIBLE 17XX LOFTON WAY
19F090257 18:39:34 911 HANG UP 7XX BROADWAY
19F090258 18:39:48 63 CONTACT 117XX INDIGO DR
19F090259 18:42:29 48,36 HOME AVE & BEAVER AVE
19F090260 18:44:44 43 DISTURBANCE 5XX E COLISEUM BLVD
19F090261 18:49:52 30 TRAFFIC STOP LAKE AVE & INWOOD DR
19F090262 18:51:03 51 THEFT 20XX PHENIE ST
19F090263 18:56:54 46 DOMESTIC 33XX BEAVER AVE
19F090264 18:58:20 30 TRAFFIC STOP LAKE AVE & N COLISEUM BLVD
19F090268 18:58:43 25HS HIT SKIP LAKE AVE & N ANTHONY BLVD
19F090265 19:00:05 96JO 33XX SANIBEL DR
19F090266 19:00:42 103 UNWANTED 11XX DEGROFF ST
19F090267 19:00:51 39JO 11XX RIVERMET AVE
19F090270 19:04:57 37 PARKING VIOL 14XX LAKE AVE
19F090269 19:06:23 25 PD ACCIDENT 6XX E DUPONT RD
19F090273 19:06:52 25HS HIT SKIP GLASGOW AVE & E WAYNE ST
19F090271 19:07:29 30 TRAFFIC STOP BROOKLYN AVE & COVINGTON RD
19F090272 19:07:55 30 TRAFFIC STOP BEAVER AVE & KINNAIRD AVE
19F090274 19:08:28 30 TRAFFIC STOP BROADWAY & SWINNEY AVE
19F090275 19:11:33 43 DISTURBANCE 102XX MAYSVILLE RD
19F090276 19:14:00 23JO 8XX OAKLAWN CT
19F090277 19:16:16 46 DOMESTIC 41XX BOWSER AVE
19F090278 19:20:36 62 PARTY ARMED HUGH ST & OHIO ST
19F090280 19:23:52 25 PD ACCIDENT N CLINTON ST & E WASHINGTON CENTER
19F090279 19:24:09 33,34 FAIRFIELD AVE & W PONTIAC ST
19F090281 19:26:53 50IP BURG I/P 43XX MARQUETTE DR
19F090282 19:27:57 44LM 2XX RILEY PL
19F090283 19:32:17 66 MENTALLY ILL 33XX E STATE BLVD
19F090285 19:45:56 40A AUDIBLE 73XX ST JOE RD
19F090284 19:46:49 30 TRAFFIC STOP ENGLE RD & MOUND PASS
19F090286 19:48:13 63Z ZACH CHECK 72XX IDEAL AVE
19F090287 19:51:05 48 SUSPICIOUS 27XX W WASHINGTON CENTER RD
19F090288 19:52:38 16,97 PARKVIEW AVE & LINDLEY AVE
19F090289 19:53:43 33,34 N COLISEUM BLVD & E STATE BLVD
19F090290 19:54:47 25HS HIT SKIP 59XX W JEFFERSON BLVD
19F090291 19:56:10 25,86 1XX E COLISEUM BLVD
19F090293 19:57:18 34 TRAFF HAZARD HOLTON AVE & SENATE AVE
19F090292 19:57:53 65T SUICIDE THR 29XX GOSHEN RD
19F090294 19:58:32 27 RECKLESS DRI BROADWAY & TAYLOR ST
19F090295 19:59:03 75 PURSUIT S CALHOUN ST & E COX DR
19F090296 20:00:44 102 THREATS 20XX FOX POINT TRL
19F090297 20:05:27 42 INTOX PERSON 103XX ILLINOIS RD
19F090309 20:05:59 44FW 12XX VENTURA LN
19F090298 20:09:41 103 UNWANTED 63XX LIMA RD
19F090300 20:09:41 66 MENTALLY ILL 53XX STONEHEDGE BLVD
19F090304 20:10:45 43 DISTURBANCE 41XX BOWSER AVE
19F090299 20:12:44 25HS HIT SKIP 53XX MERCHANDISE DR
19F090301 20:13:06 911 HANG UP 32XX SMITH ST
19F090302 20:15:29 14S SERVING WAR 22XX HOBSON RD
19F090303 20:16:02 30 TRAFFIC STOP FAIRFIELD AVE & KINNAIRD AVE
19F090306 20:16:53 25HS HIT SKIP 57XX DARTMOUTH DR
19F090305 20:19:42 33,34 E COLISEUM BLVD & COLDWATER RD
19F090307 20:22:23 48 SUSPICIOUS 64XX ST JOE RD
19F090308 20:24:11 30 TRAFFIC STOP 3XX W PACKARD AVE
19F090310 20:30:59 40A AUDIBLE 57XX S ANTHONY BLVD
19F090312 20:35:01 99 NARCOTICS 37XX E WASHINGTON BLVD
19F090311 20:39:36 43 DISTURBANCE 75XX SOUTHTOWN XING
19F090314 20:45:13 40A AUDIBLE 63XX LIMA RD
19F090315 20:46:35 30 TRAFFIC STOP LAKE AVE & N COLISEUM BLVD
19F090316 20:51:22 48,35 RUNNION AVE & WHEELER ST
19F090318 20:52:40 66 MENTALLY ILL 4XX N THREE RIVERS
19F090317 20:56:15 48,36 37XX SCHELE AVE
19F090319 21:02:09 30 TRAFFIC STOP E TILLMAN RD & S CALHOUN ST
19F090320 21:04:44 40A AUDIBLE 40XX OLIVER ST
19F090321 21:15:15 46,96 36XX AVONDALE DR
19F090322 21:17:33 43 DISTURBANCE 7XX CARIBE BLVD
19F090324 21:20:48 43,62 9XX BUCHANAN ST
19F090323 21:21:37 30 TRAFFIC STOP ILLINOIS RD & AVENUE OF AUTOS
19F090325 21:22:36 30 TRAFFIC STOP W WASHINGTON BLVD & ROCKHILL ST
19F090326 21:25:53 30 TRAFFIC STOP HOAGLAND AVE & W LENOX AVE
19F090327 21:27:40 37 PARKING VIOL 11XX MILL LAKE RD
19F090328 21:30:26 48,35 27XX TYLER AVE
19F090330 21:31:04 96IP 84XX BACKWATER DR
19F090329 21:35:04 46,62 32XX FAIRFIELD AVE
19F090343 21:37:53 44LM 21XX RIEDMILLER AVE
19F090346 21:40:07 22I JUV INVEST 14XX VERMONT AVE
19F090337 21:40:23 48,36 18XX GRISWOLD DR
19F090342 21:41:00 44LM 25XX S HANNA ST
19F090331 21:41:33 129 42XX SOUTHWAYNE AVE
19F090332 21:41:48 30 TRAFFIC STOP N COLISEUM BLVD & E STATE BLVD
19F090334 21:41:48 129 42XX SOUTHWAYNE AVE
19F090333 21:42:00 129 42XX ARLINGTON AVE
19F090335 21:43:30 43 DISTURBANCE 27XX OLIVER ST
19F090375 21:44:09 99 NARCOTICS 59XX HAZELETT RD
19F090344 21:46:15 102 THREATS 99XX ACORN LN
19F090339 21:51:17 43 DISTURBANCE 19XX MCKINNIE AVE
19F090340 21:54:37 46,96 8XX MCKINNIE AVE
19F090336 21:54:52 30 TRAFFIC STOP HOLTON AVE & E FAIRFAX AVE
19F090338 21:55:21 30 TRAFFIC STOP S ANTHONY BLVD & E FAIRFAX AVE
19F090341 21:58:32 48 SUSPICIOUS 11XX DELAWARE AVE
19F090345 22:00:31 30 TRAFFIC STOP S LAFAYETTE ST & E PAULDING RD
19F090347 22:02:45 30 TRAFFIC STOP S LAFAYETTE ST & E PETTIT AVE
19F090352 22:06:25 44LM 52XX MOUNT VERNON PARK DR
19F090348 22:06:29 96IP 18XX GRISWOLD DR
19F090349 22:07:24 96JO 22XX BEACON ST
19F090350 22:07:39 25HS HIT SKIP 101XX MAYSVILLE RD
19F090351 22:08:58 911 HANG UP 10XX BROADWAY
19F090353 22:14:53 25 PD ACCIDENT W WAYNE ST & S HARRISON ST
19F090355 22:17:09 48 SUSPICIOUS 62XX WILMARBEE DR
19F090354 22:17:12 48 SUSPICIOUS 57XX HEATHERVIEW LN
19F090356 22:19:39 113 SHOTS FIRED 31XX DEVEREUX DR
19F090358 22:26:06 41 MAN DOWN 13XX TAYLOR ST
19F090357 22:26:12 51 THEFT 63XX E STATE BLVD
19F090359 22:28:22 25 PD ACCIDENT MERIDIAN ST & GREENLAWN AVE
19F090360 22:29:44 33,34 E TILLMAN RD & S LAFAYETTE ST
19F090361 22:33:01 46 DOMESTIC 33XX WINTER ST
19F090362 22:37:50 48 SUSPICIOUS 32XX SANDHILL DR
19F090363 22:38:10 113 SHOTS FIRED 32XX CHANCELLOR DR
19F090364 22:41:54 30 TRAFFIC STOP W MAIN ST & S HARRISON ST
19F090365 22:42:14 25HS HIT SKIP 47XX HOLTON AVE
19F090367 22:46:37 48 SUSPICIOUS 10XX S CALHOUN ST
19F090366 22:47:12 25 PD ACCIDENT W BRACKENRIDGE ST & EWING ST
19F090368 22:48:04 50IP BURG I/P 61XX BUNT DR
19F090371 22:49:59 43 DISTURBANCE WEISSER PARK AVE & MCKEE ST
19F090369 22:50:14 48,36 101XX LIMA RD
19F090370 22:51:54 911 HANG UP 49XX BUELL DR
19F090372 22:53:51 43 DISTURBANCE 8XX RIDGEWOOD DR
19F090373 22:56:04 43 DISTURBANCE 24XX BELLE VISTA BLVD
19F090374 22:57:12 51JO 14XX NORTHLAWN DR
19F090377 22:59:54 25 PD ACCIDENT W US 30 & KROEMER RD
19F090376 23:00:12 113 SHOTS FIRED 32XX CHANCELLOR DR
19F090378 23:00:15 43 DISTURBANCE 6XX THIRD ST
19F090379 23:03:28 30 TRAFFIC STOP FAIRFIELD AVE & W RUDISILL BLVD
19F090380 23:03:47 25 PD ACCIDENT FREEMAN ST & MIDDLE ST
19F090381 23:05:54 46,96 43XX WINTER ST
19F090382 23:07:25 51 THEFT 6XX TENNESSEE AVE
19F090386 23:07:27 33J LOCKED OUT 75XX SOUTHTOWN XING
19F090383 23:08:44 15 ASSIST 8XX OAKLAWN CT
19F090387 23:13:40 46,96 41XX HIGHWOOD DR
19F090385 23:13:57 42 INTOX PERSON BROADWAY & W BERRY ST
19F090384 23:14:11 30 TRAFFIC STOP LIMA RD & W WASHINGTON CENTER RD
19F090388 23:19:08 27 RECKLESS DRI E RUDISILL BLVD & S CLINTON ST
19F090389 23:26:01 43 DISTURBANCE 1XX W SUPERIOR ST
19F090390 23:26:29 48 SUSPICIOUS 49XX LIMA RD
19F090391 23:30:55 113 SHOTS FIRED 79XX SERENITY DR
19F090392 23:35:22 65T SUICIDE THR 13XX EWING ST
19F090396 23:40:14 46 DOMESTIC 37XX WINTER ST
19F090393 23:41:29 55 FIGHT REED ST & E RUDISILL BLVD
19F090394 23:42:40 48 SUSPICIOUS 45XX REED ST
19F090395 23:43:00 48,36 34XX WILLOWDALE RD
19F090398 23:44:07 911 HANG UP 25XX RIDGEWAY DR
19F090397 23:46:01 1 MEET GOSHEN RD & W WASHINGTON CENTER RD
19F090403 23:52:13 44LM HOAGLAND AVE & W PACKARD AVE
19F090400 23:53:34 46 DOMESTIC 55XX WINTER ST
19F090399 23:53:52 30 TRAFFIC STOP E STATE BLVD & CRESCENT AVE
19F090401 23:56:07 48 SUSPICIOUS XX E MAIN ST BLDG PG
19F090402 23:58:31 26 PI ACCIDENT 47XX S ANTHONY BLVD